Weather in Hilton Head Island

United States     32°11′46″N   80°44′18″W
temp.,
°C
wind,
m/s
gust,
m/s
humid.,
%
clouds,
%
prec.,
mm/h
press.,
hPa
HPBL,
m
18 september, sat
sat1823:00+25e117793 0.0 1019212
02:00+24n2282100 0.0 1017125
05:00+24n2387100 0.0 1018125
08:00+24nne248775 0.0 1018173
11:00+28ene236499 0.0 1019802
14:00+29ese5465100 0.0 1017841
17:00+28ese4469100 0.0 1016662
20:00+26ese357889 0.1 1017408
19 september, sun
sun1923:00+25ese2482100 3.1 1018207
02:00+25e2379100 3.1 1017313
05:00+25ene3483100 0.1 1017340
08:00+25ene4780100 0.1 1017480
11:00+28e5766100 0.0 10181120
14:00+29e786498 0.1 10171310
17:00+28e676768 0.1 10161079
20:00+27e6976100 0.8 1017860
20 september, mon
mon2023:00+26e6879100 1.4 1018719
02:00+26ese6986100 4.2 1017599
05:00+25ese698696 3.6 1017612
08:00+25ese6986100 8.9 1017639
11:00+25ese6989100 12.4 1019653
14:00+24ese6992100 25.8 1018553
17:00+25ese5889100 9.8 1017539
20:00+25se5789100 13.2 1018464
21 september, tue
tue2123:00+25se5785100 1.0 1019459
02:00+25se4685100 1.3 1018317
05:00+25ese2383100 0.8 1017260
08:00+24nne1285100 1.2 1018186
11:00+27ese2370100 0.1 1019715
14:00+27sse457098 0.9 1018758
17:00+24sse5891100 4.8 1017461
20:00+24se5786100 8.0 1017443
22 september, wed
wed2223:00+25sse5783100 0.6 1017575
02:00+25s358742 1.8 1015392
05:00+24w11885 4.2 101441
08:00+24n239140 5.8 1014155
11:00+27n227424 0.1 1014601
14:00+27nw347637 3.4 1013789
17:00+28nw45682 0.8 1011987
20:00+26w237710 0.8 1012102